Location: Aurora Center
(43.5271°N, 98.5894°W)
Time: 01:13:21
(UTC-05:00)

BlueWalker 3 - Pass Details

Date: 19 June 2024
Orbit: 480 x 492 km, 53.2° (Epoch: 15 July)

Event Time Altitude Azimuth Distance (km) Brightness Sun altitude
Rises 00:40:29 0° 275° (W) 2,535 5.7 -21.8°
Reaches altitude 10° 00:42:58 10° 290° (WNW) 1,656 5.0 -22.0°
Maximum altitude 00:46:01 23° 345° (NNW) 1,058 4.4 -22.1°
Drops below altitude 10° 00:49:04 10° 39° (NE) 1,658 5.0 -22.2°
Sets 00:51:33 0° 55° (NE) 2,539 5.8 -22.3°
